Regional Weather Roundup
Issued by NWS San Diego, CA

Home | Current Version | Previous Version | Text Only | Print | Product List | Glossary On
Versions: 1 2 3 4 5 6 7 8 9 10 11 12 13 14 15 16 17 18 19 20 21 22 23 24 25 26 27
000
ASUS46 KSGX 022211
RWRSGX

SAN DIEGO HOURLY WEATHER ROUNDUP
NATIONAL WEATHER SERVICE SAN DIEGO CA
300 PM PDT MON MAY 02 2016

NOTE: "FAIR" INDICATES FEW OR NO CLOUDS BELOW 12,000 FEET WITH NO
SIGNIFICANT WEATHER AND/OR OBSTRUCTIONS TO VISIBILITY.

CAZ042-043-060-061-PZZ750-775-022300-

GREATER SAN DIEGO AREA

CITY           SKY/WX    TMP DP  RH WIND       PRES   REMARKS
LINDBERGH FLD  MOSUNNY   69  55  60 W13       30.00F
POINT LOMA       N/A     65  64  97 NW17        N/A
NATIONAL CITY    N/A     68  58  70 NW3       29.99F
CHULA VISTA      N/A     69  59  70 W3        29.91F
IMPERIAL BEACH MOSUNNY   70  56  61 NW13      30.00S
BROWN FIELD    SUNNY     67  55  65 W12       29.98F
MIRAMAR MCAS   MOSUNNY   72  55  55 W10       29.98F
MONTGOMERY FLD MOSUNNY   70  55  59 W10       29.98F

$$

NORTH SAN DIEGO COUNTY

CITY           SKY/WX    TMP DP  RH WIND       PRES   REMARKS
CAMP PENDLETON MOSUNNY   69  57  65 SW10G24   29.95F
OCEANSIDE AP   SUNNY     69  55  60 W12       29.96F
OCEANSIDE HBR    N/A     64  59  85 W14       30.00F
VISTA            N/A     69  58  68 SW8       29.96R
CARLSBAD       SUNNY     66  56  70 W13       29.97F
DEL MAR          N/A     69  58  68 CALM      30.01F
LA JOLLA SCRIP   N/A     63  58  83 W5        29.99S
FALLBROOK        N/A     76  60  56 S9        29.93F
SAN MARCOS       N/A     69  56  63 NW12      29.96S
POWAY            N/A     74  58  55 SW3       29.98S

$$

EAST SAN DIEGO COUNTY

CITY           SKY/WX    TMP DP  RH WIND       PRES   REMARKS
RAMONA         MOSUNNY   78  52  40 W14       29.97S
SANTEE LAKES     N/A     73  58  58 SW12      29.95F
LA MESA          N/A     71  57  61 CALM      29.91S
JAMUL            N/A     76  58  54 W6        29.97S
DESCANSO N       N/A     73  39  29 E2        29.87F
MT. LAGUNA OBS   N/A     54  35  47 NE3       29.71
CAMPO            N/A     76  37  24 NE15      29.96F

$$

ORANGE COUNTY AND THE LOS ANGELES BASIN

CITY           SKY/WX    TMP DP  RH WIND       PRES   REMARKS
JOHN WAYNE AP  MOSUNNY   71  55  56 SW8       29.96F
LAKE FOREST FR   N/A     79  54  41 W7        29.85F
HUNTINGTON BCH   N/A     67  59  76 W14       29.98F
LOS ALAMITOS   FAIR      77  55  45 W9        29.96F
FULLERTON      SUNNY     79  52  38 VRB6      29.94F
LONG BEACH     SUNNY     71  54  54 W14       29.96F
L.A. AP        MOSUNNY   65  53  65 W18       29.99F
L.A. DOWNTOWN  SUNNY     69  53  56 W9        29.97F

$$

THE INLAND EMPIRE

CITY           SKY/WX    TMP DP  RH WIND       PRES   REMARKS
CORONA         SUNNY     83  54  36 W12G20    29.93F
CHINO          MOSUNNY   88  47  24 W12       29.94F
ONTARIO        MOSUNNY   86  36  16 VRB3      29.94F
SAN BERNARDINO PTSUNNY   82  39  21 NE10      29.95F
RIVERSIDE AP   PTSUNNY   87  39  18 VRB7      29.93F
MORENO VALLEY    N/A     85  50  29 CALM      28.07F
MARCH ARB      MOSUNNY   82  43  25 N9        29.95F
HORSETHIEF CYN   N/A     82  43  24 E10       29.97F
PERRIS           N/A     81  46  29 NE6       29.94F
HEMET EAST       N/A     79  35  20 CALM      29.85F
FRENCH VALLEY  FAIR      82  41  23 N7        29.94F
TEMECULA         N/A     83  54  36 SW13      29.87F

$$

SAN BERNARDINO AND RIVERSIDE COUNTY MOUNTAINS

CITY           SKY/WX    TMP DP  RH WIND       PRES   REMARKS
BIG BEAR AP    MOSUNNY   54  32  43 E3        30.19F
ANGELUS OAKS     N/A     52  45  77 N1        29.97F
PINE COVE        N/A     58  40  50 CALM      30.04F

$$

SOUTHERN DESERT INCLUDING THE COACHELLA VALLEY

CITY           SKY/WX    TMP DP  RH WIND       PRES   REMARKS
PALM SPRINGS   PTSUNNY   88  38  17 VRB5      29.92F
THOUSAND PALMS   N/A     91  43  18 S6        29.89F
PALM DESERT      N/A     92  45  19 SE1       28.43S
THERMAL        MOSUNNY   91  39  16 SW6       29.87F
BLYTHE         SUNNY     88  38  17 S7        29.91F
IMPERIAL AP    SUNNY     91  41  17 N7        29.89F
EL CENTRO NAS  MOSUNNY   86  39  19 VRB3      29.91F
YUMA AZ        MOSUNNY   89  38  16 VRB3      29.89
MEXICALI         N/A    N/A N/A N/A MISG        N/A

$$

UPPER DESERT

CITY           SKY/WX    TMP DP  RH WIND       PRES   REMARKS
VICTORVILLE AP PTSUNNY   73  34  23 CALM      30.04S
HESPERIA         N/A     76  41  28 SE3       30.08F
PALMDALE       MOSUNNY   79  34  19 E12       30.01F
LANCASTER      MOSUNNY   81  34  18 E8G20     30.00F
DAGGETT        SUNNY     82  33  17 NE6       30.00F
29 PALMS N     PTSUNNY   78  32  18 W6        30.06F
NEEDLES        MOSUNNY   85  38  18 VRB3      29.94F

$$

REGIONAL REPORTS

CITY           SKY/WX    TMP DP  RH WIND       PRES   REMARKS
SANTA BARBARA  SUNNY     63  53  70 W14       30.00F
SANDBERG       PTSUNNY   69  35  28 SE8G23    30.11F
LAS VEGAS NV   MOSUNNY   79  33  19 CALM      29.99F
PHOENIX AZ     MOSUNNY   86  36  16 W7        29.90F
TIJUANA        SUNNY     68  52  56 W12       30.00F
ENSENADA NW      N/A     65  32  29 W8        29.96F

$$

OFFSHORE ISLANDS

CITY           SKY/WX    TMP DP  RH WIND       PRES   REMARKS
CATALINA ARPT  SUNNY     62  51  67 SW12      30.02F
SAN CLEMENTE I MOSUNNY   63  51  65 W15       30.03F
SAN NICOLAS IS MOSUNNY   62  52  69 W10G20    30.01F

$$

MARINE AND OFFSHORE BUOY REPORTS

STATION/POSITION SKY/WX   TEMP    WIND        PRES    SWELL
                          AIR SEA DIR/SP/G            HT/PER/DIR
                          (F)     (DEG/KT/KT) (MB)    (FT/S/D)
TANNER BANKS               59 61  280/  6/  8 1017.0F   7/220/15
S CLEMENTE BASIN           58 62  280/ 16/ 17 1015.7F   5/220/14
SAN NICOLAS IS.               61                N/A     5/290/13
SO. S. ROSA ISLA           56 58  290/  8/ 10 1017.1F   5/290/13
W. S. BARBARA CH           55 57  310/  8/ 10 1016.6F   5/280/13
M. S. BARBARA CH           56 57  270/ 10/ 12 1016.9F
S. MONICA BASIN            58 61  280/ 12/ 16 1016.4F   3/190/15
S PEDRO CHANNEL               62                N/A     2/210/13
OCEANSIDE OFFSHR              64                N/A     3/190/14
TORREY PINES OTR              65                N/A     3/190/15
LA JOLLA 1                 63 67  300/ 10/ 13 1015.6F
SAN DIEGO BAY                 68              1015.8F
POINT LOMA SOUTH              63                N/A     3/190/14

$$





USA.gov is the U.S. government's official web portal to all federal, state and local government web resources and services.